Flag for Norway Weather past 2 weeks in Grimstad, Norway

Now
51 °F

Cool.


Feels Like: 49 °F
Forecast: 53 / 56 °F
Wind: 5 mph from Southwest

Location: Torungen Fyr

Current Time: Oct 25, 2014 at 8:00:32 AM

Latest Report: Oct 25, 2014 at 7:00 AM


Visibility: N/A

Pressure: 29.80 "Hg

Humidity: 95%

Dew point: 49 °F

Location of GrimstadLocation

Historic Weather in Grimstad — Graph

°F

Grimstad temperature yesterday

Maximum temperature yesterday: 56 °F (at 10:00 AM)
Minimum temperature yesterday: 53 °F (at 12:00 AM)
Average temperature yesterday: 55 °F

Past Weeks' High & Low Weather Summary

 TemperatureHumidityPressure
High59 °F (Oct 20, 3:00 PM)100% (Oct 18, 12:00 AM)30.06 "Hg (Oct 18, 12:00 AM)
Low39 °F (Oct 16, 11:00 PM)62% (Oct 12, 4:00 PM)29.29 "Hg (Oct 21, 7:00 PM)
Average51 °F90%29.78 "Hg
* Reported Oct 10 6:00 AM — Oct 25 6:00 AM, Grimstad, Weather by CustomWeather, © 2014

Note: Actual official high and low records may vary slightly from our data, if they occured in-between our weather recording intervals... More about our weather records

Advertising

Grimstad weather history for previous 24 hours

 ConditionsComfort  
Time TempWeatherWind HumidityBarometerVisibility
6:00 AM
Oct 25
50 °FCool.3 mph96%29.79 "HgN/A
5:00 AM51 °FCool.6 mph97%29.79 "HgN/A
4:00 AM52 °FCool.5 mph97%29.78 "HgN/A
3:00 AM52 °FCool.5 mph98%29.78 "HgN/A
2:00 AM53 °FCool.6 mph97%29.79 "HgN/A
1:00 AM53 °FCool.7 mph97%29.79 "HgN/A
12:00 AM54 °FCool.6 mph97%29.80 "HgN/A
11:00 PM
Oct 24
53 °FCool.8 mph97%29.80 "HgN/A
10:00 PM54 °FCool.7 mph97%29.81 "HgN/A
9:00 PM54 °FCool.8 mph97%29.81 "HgN/A
8:00 PM55 °FCool.10 mph97%29.82 "HgN/A
7:00 PM55 °FCool.12 mph98%29.82 "HgN/A
6:00 PM55 °FCool.10 mph97%29.82 "HgN/A
5:00 PM55 °FCool.12 mph97%29.82 "HgN/A
4:00 PM55 °FCool.10 mph98%29.83 "HgN/A
3:00 PM55 °FCool.10 mph98%29.83 "HgN/A
2:00 PM55 °FCool.10 mph98%29.84 "HgN/A
1:00 PM55 °FCool.10 mph98%29.85 "HgN/A
12:00 PM55 °FCool.10 mph99%29.85 "HgN/A
11:00 AM55 °FCool.12 mph98%29.85 "HgN/A
10:00 AM56 °FCool.14 mph98%29.84 "HgN/A
9:00 AM55 °FCool.14 mph98%29.84 "HgN/A
8:00 AM55 °FCool.14 mph98%29.83 "HgN/A
Weather by CustomWeather, © 2014

See weather overviewHow to use our weather pages